Time,TemperatureF,DewpointF,PressureIn,WindDirection,WindDirectionDegrees,WindSpeedMPH,WindSpeedGustMPH,Humidity,HourlyPrecipIn,Conditions,Clouds,dailyrainin,SoftwareType,DateUTC
2013-03-19 00:09:00,21.9,14.3,29.28,NNE,22,0.0,-999.0,72,-99.99,,,0.00,Acu-Link.com,2013-03-19 05:09:00,
2013-03-19 00:24:00,21.6,14.0,29.29,North,0,0.0,-999.0,72,-99.99,,,0.00,Acu-Link.com,2013-03-19 05:24:00,
2013-03-19 00:39:00,21.2,13.9,29.29,NE,45,0.0,-999.0,73,-99.99,,,0.00,Acu-Link.com,2013-03-19 05:39:00,
2013-03-19 00:54:00,20.7,13.7,29.29,NW,315,0.0,-999.0,74,-99.99,,,0.00,Acu-Link.com,2013-03-19 05:54:00,
2013-03-19 01:09:00,20.5,11.6,29.29,NNW,337,0.0,-999.0,68,-99.99,,,0.00,Acu-Link.com,2013-03-19 06:09:00,
2013-03-19 01:25:00,20.3,12.1,29.30,NNW,337,0.0,-999.0,70,-99.99,,,0.00,Acu-Link.com,2013-03-19 06:25:00,
2013-03-19 01:40:00,19.8,12.9,29.31,NNW,337,0.0,-999.0,74,-99.99,,,0.00,Acu-Link.com,2013-03-19 06:40:00,
2013-03-19 01:55:00,19.8,13.2,29.31,WSW,247,0.0,-999.0,75,-99.99,,,0.00,Acu-Link.com,2013-03-19 06:55:00,
2013-03-19 02:10:00,19.8,12.6,29.32,WNW,292,0.0,-999.0,73,-99.99,,,0.00,Acu-Link.com,2013-03-19 07:10:00,
2013-03-19 02:25:00,19.6,11.4,29.33,NW,315,0.0,-999.0,70,-99.99,,,0.00,Acu-Link.com,2013-03-19 07:25:00,
2013-03-19 02:40:00,19.4,11.2,29.33,NNW,337,0.0,-999.0,70,-99.99,,,0.00,Acu-Link.com,2013-03-19 07:40:00,
2013-03-19 02:55:00,19.2,12.0,29.34,West,270,0.0,-999.0,73,-99.99,,,0.00,Acu-Link.com,2013-03-19 07:55:00,
2013-03-19 03:10:00,19.2,12.0,29.34,North,0,0.0,-999.0,73,-99.99,,,0.00,Acu-Link.com,2013-03-19 08:10:00,
2013-03-19 03:25:00,19.2,11.0,29.33,NNW,337,0.0,-999.0,70,-99.99,,,0.00,Acu-Link.com,2013-03-19 08:25:00,
2013-03-19 03:40:00,19.2,11.0,29.34,WNW,292,0.0,-999.0,70,-99.99,,,0.00,Acu-Link.com,2013-03-19 08:40:00,
2013-03-19 03:56:00,18.9,11.1,29.33,North,0,0.0,-999.0,71,-99.99,,,0.00,Acu-Link.com,2013-03-19 08:56:00,
2013-03-19 04:41:00,18.5,10.7,29.33,NE,45,0.0,-999.0,71,-99.99,,,0.00,Acu-Link.com,2013-03-19 09:41:00,
2013-03-19 04:56:00,18.1,10.0,29.33,North,0,0.0,-999.0,70,-99.99,,,0.00,Acu-Link.com,2013-03-19 09:56:00,
2013-03-19 05:11:00,18.0,10.2,29.34,ENE,67,0.0,-999.0,71,-99.99,,,0.00,Acu-Link.com,2013-03-19 10:11:00,
2013-03-19 05:26:00,17.8,9.4,29.35,NNW,337,0.0,-999.0,69,-99.99,,,0.00,Acu-Link.com,2013-03-19 10:26:00,
2013-03-19 05:41:00,17.8,9.4,29.35,NNW,337,0.0,-999.0,69,-99.99,,,0.00,Acu-Link.com,2013-03-19 10:41:00,
2013-03-19 05:57:00,17.6,9.5,29.36,NNE,22,0.0,-999.0,70,-99.99,,,0.00,Acu-Link.com,2013-03-19 10:57:00,
2013-03-19 06:12:00,17.4,9.6,29.36,NW,315,0.0,-999.0,71,-99.99,,,0.00,Acu-Link.com,2013-03-19 11:12:00,
2013-03-19 06:27:00,17.2,9.4,29.37,North,0,0.0,-999.0,71,-99.99,,,0.00,Acu-Link.com,2013-03-19 11:27:00,
2013-03-19 06:57:00,16.9,8.8,29.38,WNW,292,0.0,-999.0,70,-99.99,,,0.00,Acu-Link.com,2013-03-19 11:57:00,
2013-03-19 07:12:00,16.5,8.5,29.39,NNW,337,0.0,-999.0,70,-99.99,,,0.00,Acu-Link.com,2013-03-19 12:12:00,
2013-03-19 07:27:00,16.3,8.6,29.39,NNW,337,0.0,-999.0,71,-99.99,,,0.00,Acu-Link.com,2013-03-19 12:27:00,
2013-03-19 07:42:00,16.7,9.6,29.39,NNW,337,0.0,-999.0,73,-99.99,,,0.00,Acu-Link.com,2013-03-19 12:42:00,
2013-03-19 07:57:00,17.1,10.0,29.40,NW,315,0.0,-999.0,73,-99.99,,,0.00,Acu-Link.com,2013-03-19 12:57:00,
2013-03-19 08:13:00,17.4,9.6,29.41,North,0,0.0,-999.0,71,-99.99,,,0.00,Acu-Link.com,2013-03-19 13:13:00,
2013-03-19 08:28:00,18.0,8.6,29.42,North,0,0.0,-999.0,66,-99.99,,,0.00,Acu-Link.com,2013-03-19 13:28:00,
2013-03-19 08:43:00,18.7,9.6,29.43,NNW,337,0.0,-999.0,67,-99.99,,,0.00,Acu-Link.com,2013-03-19 13:43:00,
2013-03-19 08:58:00,20.5,11.0,29.44,NNW,337,0.0,-999.0,66,-99.99,,,0.00,Acu-Link.com,2013-03-19 13:58:00,
2013-03-19 09:13:00,21.4,10.4,29.45,North,0,0.0,-999.0,62,-99.99,,,0.00,Acu-Link.com,2013-03-19 14:13:00,
2013-03-19 09:28:00,22.6,11.2,29.46,NNW,337,0.0,-999.0,61,-99.99,,,0.00,Acu-Link.com,2013-03-19 14:28:00,
2013-03-19 09:43:00,23.0,10.1,29.45,NNW,337,0.0,-999.0,57,-99.99,,,0.00,Acu-Link.com,2013-03-19 14:43:00,
2013-03-19 09:58:00,23.2,9.1,29.46,East,90,0.0,-999.0,54,-99.99,,,0.00,Acu-Link.com,2013-03-19 14:58:00,
2013-03-19 10:13:00,24.4,9.8,29.46,NW,315,0.0,-999.0,53,-99.99,,,0.00,Acu-Link.com,2013-03-19 15:13:00,
2013-03-19 10:29:00,25.0,10.3,29.46,West,270,0.0,-999.0,53,-99.99,,,0.00,Acu-Link.com,2013-03-19 15:29:00,
2013-03-19 10:44:00,25.7,11.4,29.48,NNW,337,0.0,-999.0,54,-99.99,,,0.00,Acu-Link.com,2013-03-19 15:44:00,
2013-03-19 10:59:00,26.6,11.4,29.48,NNW,337,0.0,-999.0,52,-99.99,,,0.00,Acu-Link.com,2013-03-19 15:59:00,
2013-03-19 11:14:00,27.1,11.4,29.48,NNW,337,0.0,-999.0,51,-99.99,,,0.00,Acu-Link.com,2013-03-19 16:14:00,
2013-03-19 11:29:00,28.2,12.4,29.49,North,0,0.0,-999.0,51,-99.99,,,0.00,Acu-Link.com,2013-03-19 16:29:00,
2013-03-19 11:44:00,29.5,13.6,29.48,NNW,337,0.0,-999.0,51,-99.99,,,0.00,Acu-Link.com,2013-03-19 16:44:00,
2013-03-19 11:59:00,29.5,14.1,29.49,NNW,337,0.0,-999.0,52,-99.99,,,0.00,Acu-Link.com,2013-03-19 16:59:00,
2013-03-19 12:14:00,30.4,13.6,29.49,NE,45,0.0,-999.0,49,-99.99,,,0.00,Acu-Link.com,2013-03-19 17:14:00,
2013-03-19 12:29:00,30.6,13.3,29.48,North,0,0.0,-999.0,48,-99.99,,,0.00,Acu-Link.com,2013-03-19 17:29:00,
2013-03-19 12:44:00,31.5,13.6,29.48,NE,45,0.0,-999.0,47,-99.99,,,0.00,Acu-Link.com,2013-03-19 17:44:00,
2013-03-19 13:00:00,34.0,18.2,29.49,NNE,22,0.0,-999.0,52,-99.99,,,0.00,Acu-Link.com,2013-03-19 18:00:00,
2013-03-19 13:15:00,33.6,16.5,29.49,NNW,337,0.0,-999.0,49,-99.99,,,0.00,Acu-Link.com,2013-03-19 18:15:00,
2013-03-19 13:30:00,34.2,16.1,29.48,NNW,337,0.0,-999.0,47,-99.99,,,0.00,Acu-Link.com,2013-03-19 18:30:00,
2013-03-19 13:45:00,35.1,15.4,29.48,NW,315,0.0,-999.0,44,-99.99,,,0.00,Acu-Link.com,2013-03-19 18:45:00,
2013-03-19 14:00:00,35.1,15.9,29.48,North,0,0.0,-999.0,45,-99.99,,,0.00,Acu-Link.com,2013-03-19 19:00:00,
2013-03-19 14:15:00,35.8,15.5,29.47,West,270,0.0,-999.0,43,-99.99,,,0.00,Acu-Link.com,2013-03-19 19:15:00,
2013-03-19 14:30:00,37.8,17.3,29.47,WNW,292,0.0,-999.0,43,-99.99,,,0.00,Acu-Link.com,2013-03-19 19:30:00,
2013-03-19 14:45:00,37.9,17.4,29.47,NNE,22,0.0,-999.0,43,-99.99,,,0.00,Acu-Link.com,2013-03-19 19:45:00,
2013-03-19 15:00:00,37.2,16.8,29.46,East,90,0.0,-999.0,43,-99.99,,,0.00,Acu-Link.com,2013-03-19 20:00:00,
2013-03-19 15:16:00,37.0,17.1,29.47,NNW,337,0.0,-999.0,44,-99.99,,,0.00,Acu-Link.com,2013-03-19 20:16:00,
2013-03-19 16:16:00,40.8,19.5,29.45,NNW,337,0.0,-999.0,42,-99.99,,,0.00,Acu-Link.com,2013-03-19 21:16:00,
2013-03-19 16:31:00,40.8,18.4,29.44,NW,315,0.0,-999.0,40,-99.99,,,0.00,Acu-Link.com,2013-03-19 21:31:00,
2013-03-19 16:46:00,40.8,19.5,29.45,NW,315,0.0,-999.0,42,-99.99,,,0.00,Acu-Link.com,2013-03-19 21:46:00,
2013-03-19 17:01:00,41.2,20.4,29.45,West,270,0.0,-999.0,43,-99.99,,,0.00,Acu-Link.com,2013-03-19 22:01:00,
2013-03-19 17:16:00,43.5,20.8,29.45,NE,45,0.0,-999.0,40,-99.99,,,0.00,Acu-Link.com,2013-03-19 22:16:00,
2013-03-19 17:32:00,46.6,22.4,29.45,NNE,22,0.0,-999.0,38,-99.99,,,0.00,Acu-Link.com,2013-03-19 22:32:00,
2013-03-19 18:37:00,39.7,21.1,29.45,NNW,337,0.0,-999.0,47,-99.99,,,0.00,Acu-Link.com,2013-03-19 23:37:00,
2013-03-19 18:52:00,37.2,20.8,29.45,NE,45,0.0,-999.0,51,-99.99,,,0.00,Acu-Link.com,2013-03-19 23:52:00,
2013-03-19 19:07:00,35.8,20.8,29.46,North,0,0.0,-999.0,54,-99.99,,,0.00,Acu-Link.com,2013-03-20 00:07:00,
2013-03-19 19:22:00,34.0,20.4,29.46,NNE,22,0.0,-999.0,57,-99.99,,,0.00,Acu-Link.com,2013-03-20 00:22:00,
2013-03-19 19:37:00,32.5,20.2,29.46,North,0,0.0,-999.0,60,-99.99,,,0.00,Acu-Link.com,2013-03-20 00:37:00,
2013-03-19 19:52:00,31.6,20.5,29.46,NNW,337,0.0,-999.0,63,-99.99,,,0.00,Acu-Link.com,2013-03-20 00:52:00,
2013-03-19 20:07:00,30.4,20.4,29.47,NNE,22,0.0,-999.0,66,-99.99,,,0.00,Acu-Link.com,2013-03-20 01:07:00,
2013-03-19 20:22:00,30.4,21.1,29.48,NNW,337,0.0,-999.0,68,-99.99,,,0.00,Acu-Link.com,2013-03-20 01:22:00,
2013-03-19 20:37:00,30.2,20.9,29.48,East,90,0.0,-999.0,68,-99.99,,,0.00,Acu-Link.com,2013-03-20 01:37:00,
2013-03-19 20:53:00,29.7,21.1,29.50,NNW,337,0.0,-999.0,70,-99.99,,,0.00,Acu-Link.com,2013-03-20 01:53:00,
2013-03-19 21:08:00,29.3,21.4,29.50,West,270,0.0,-999.0,72,-99.99,,,0.00,Acu-Link.com,2013-03-20 02:08:00,
2013-03-19 21:23:00,28.9,21.7,29.50,West,270,0.0,-999.0,74,-99.99,,,0.00,Acu-Link.com,2013-03-20 02:23:00,
2013-03-19 21:38:00,28.8,21.9,29.50,NE,45,0.0,-999.0,75,-99.99,,,0.00,Acu-Link.com,2013-03-20 02:38:00,
2013-03-19 21:53:00,28.6,21.4,29.51,NNW,337,0.0,-999.0,74,-99.99,,,0.00,Acu-Link.com,2013-03-20 02:53:00,
2013-03-19 22:08:00,28.0,21.1,29.51,NNW,337,0.0,-999.0,75,-99.99,,,0.00,Acu-Link.com,2013-03-20 03:08:00,
2013-03-19 22:23:00,27.9,21.0,29.51,NW,315,0.0,-999.0,75,-99.99,,,0.00,Acu-Link.com,2013-03-20 03:23:00,
2013-03-19 22:38:00,27.5,20.9,29.51,NE,45,0.0,-999.0,76,-99.99,,,0.00,Acu-Link.com,2013-03-20 03:38:00,
2013-03-19 22:53:00,27.5,21.6,29.52,NE,45,0.0,-999.0,78,-99.99,,,0.00,Acu-Link.com,2013-03-20 03:53:00,
2013-03-19 23:09:00,27.3,21.7,29.52,NE,45,0.0,-999.0,79,-99.99,,,0.00,Acu-Link.com,2013-03-20 04:09:00,
2013-03-19 23:24:00,26.4,21.4,29.53,NE,45,0.0,-999.0,81,-99.99,,,0.00,Acu-Link.com,2013-03-20 04:24:00,
2013-03-19 23:39:00,25.7,20.7,29.54,North,0,0.0,-999.0,81,-99.99,,,0.00,Acu-Link.com,2013-03-20 04:39:00,
2013-03-19 23:54:00,25.3,19.7,29.54,NNE,22,0.0,-999.0,79,-99.99,,,0.00,Acu-Link.com,2013-03-20 04:54:00,